Weather History for TGPY - January, 2013

Change the Weather History Date:

Sunday, January 27, 2013

  Actual Average Record
Temperature  
Mean Temperature 79 °F -  
Max Temperature 86 °F 83 °F 86 °F (1998)
Min Temperature 72 °F 73 °F 71 °F (1999)
Cooling Degree Days 14    
Growing Degree Days 29 (Base 50)    
Moisture  
Dew Point 74 °F    
Average Humidity 83    
Maximum Humidity 100    
Minimum Humidity 70    
Precipitation  
Precipitation 0.08 in - - ()
Sea Level Pressure  
Sea Level Pressure 30.01 in    
Wind  
Wind Speed 11 mph ()    
Max Wind Speed 18 mph    
Max Gust Speed -    
Visibility 6.9 miles    
Events Rain    
Averages and records for this station are not official NWS values.
T = Trace of Precipitation, MM = Missing Value Source: Averaged Metar Reports

Daily Weather History Graph

Daily Weather History Graph

Search for Another Location

Airport or City:

Trip Planner

Search our weather history database for the weather conditions in past years. The results will help you decide how hot, cold, wet, or windy it might be!

Date:

Astronomy

Jan. 27, 2013 Rise Set
Actual Time 6:32 AM AST 6:07 PM AST
Civil Twilight 6:10 AM AST 6:29 PM AST
Nautical Twilight 5:44 AM AST 6:55 PM AST
Astronomical Twilight 5:19 AM AST 7:20 PM AST
Moon 6:39 PM AST (1/27) 6:36 AM AST (1/27)
Length of Visible Light 12h 19m
Length of Day
11h 35m
Full, 100% of the Moon is Illuminated
Jan 27
Full
Feb 3
Last Quarter
Feb 10
New
Feb 17
First Quarter
Feb 25
Full

Hourly Weather History & Observations

Time (AST) Temp. Heat Index Dew Point Humidity Pressure Visibility Wind Dir Wind Speed Gust Speed Precip Events Conditions
12:00 AM 78.8 °F - 73.4 °F 83% 29.98 in 6.2 mi East 11.5 mph - N/A   Partly Cloudy
1:00 AM 78.8 °F - 73.4 °F 83% 29.98 in 6.2 mi East 9.2 mph - N/A   Mostly Cloudy
2:00 AM 78 °F - 73 °F 80% 29.98 in 11 mi East 12.7 mph - - Rain Light Rain Showers
2:00 AM 78.8 °F - 73.4 °F 83% 29.98 in 6.2 mi East 12.7 mph - N/A Rain Light Rain Showers
5:00 AM 77 °F - 73 °F 83% 29.97 in 12 mi East 11.5 mph - -   Widespread Dust
5:00 AM 77.0 °F - 73.4 °F 89% 29.98 in 6.2 mi East 11.5 mph - N/A   Partly Cloudy
6:00 AM 77.0 °F - 73.4 °F 89% 29.98 in 6.2 mi East 11.5 mph - N/A   Partly Cloudy
7:00 AM 78.8 °F - 73.4 °F 83% 30.01 in 6.2 mi East 12.7 mph - N/A   Partly Cloudy
8:00 AM 81 °F - 74 °F 72% 30.02 in 14 mi East 13.8 mph - -   Widespread Dust
8:00 AM 80.6 °F 85.4 °F 73.4 °F 79% 30.01 in 6.2 mi East 13.8 mph - N/A   Partly Cloudy
9:00 AM 82.4 °F 89.5 °F 75.2 °F 79% 30.04 in 6.2 mi ESE 15.0 mph - N/A   Scattered Clouds
10:00 AM 80.6 °F 86.2 °F 75.2 °F 84% 30.04 in 6.2 mi ESE 16.1 mph - N/A   Partly Cloudy
11:00 AM 83 °F - 76 °F 73% 30.04 in 12 mi ESE 16.1 mph - -   Widespread Dust
11:00 AM 82.4 °F 89.5 °F 75.2 °F 79% 30.04 in 6.2 mi ESE 16.1 mph - N/A   Mostly Cloudy
12:00 PM 84.2 °F 90.9 °F 73.4 °F 70% 30.01 in 6.2 mi East 18.4 mph - N/A   Mostly Cloudy
1:00 PM 84.2 °F 92.3 °F 75.2 °F 74% 30.01 in 6.2 mi ESE 16.1 mph - N/A   Partly Cloudy
2:00 PM 79 °F - 73 °F 78% 29.99 in 5 mi East 15.0 mph - - Rain Light Rain Showers
2:00 PM 78.8 °F - 73.4 °F 83% 29.98 in 5.0 mi East 15.0 mph - N/A Rain Light Rain Showers
3:00 PM 82.4 °F 88.2 °F 73.4 °F 74% 29.95 in 6.2 mi ESE 17.3 mph - N/A   Scattered Clouds
4:00 PM 82.4 °F 89.5 °F 75.2 °F 79% 29.98 in 6.2 mi East 9.2 mph - N/A   Scattered Clouds
5:00 PM 79 °F - 74 °F 82% 29.99 in 7 mi East 11.5 mph - - Rain Light Rain Showers
5:00 PM 78.8 °F - 75.2 °F 89% 29.98 in 6.2 mi East 11.5 mph - N/A Rain Light Rain Showers
6:00 PM 78.8 °F - 71.6 °F 78% 30.01 in 6.2 mi East 8.1 mph - N/A   Mostly Cloudy
7:00 PM 77.0 °F - 75.2 °F 94% 30.01 in 5.0 mi ESE 9.2 mph - N/A Rain Light Rain Showers
8:00 PM 77 °F - 75 °F 92% 30.04 in 5 mi East 16.1 mph - - Rain Light Rain Showers
8:00 PM 77.0 °F - 75.2 °F 94% 30.04 in 5.0 mi East 16.1 mph - N/A Rain Light Rain Showers
9:00 PM 75.2 °F - 73.4 °F 94% 30.04 in 5.0 mi East 6.9 mph - N/A Rain Light Rain Showers
10:00 PM 75.2 °F - 75.2 °F 100% 30.04 in 6.2 mi East 5.8 mph - N/A   Mostly Cloudy
11:00 PM 77 °F - 74 °F 90% 30.04 in 9 mi East 8.1 mph - -   Widespread Dust
11:00 PM 77.0 °F - 75.2 °F 94% 30.04 in 6.2 mi East 8.1 mph - N/A   Mostly Cloudy